DW7304 Weather Reports


Display with metric or nautical units.
time (UTC)temp
F
wind
direction
speed
MPH
gust
MPH
rain 1hr
in
rain 24hr
in
rain mn
in
humidity
%
barometer
mb
20260903220005 69 79 1.0 2.0 0.00 0.00 0.00 59 1018.2
20260903215403 68 69 2.0 3.0 0.00 0.00 0.00 59 1018.1
20260903214503 69 50 1.0 2.0 0.00 0.00 0.00 59 1018.2
20260903213603 69 58 1.0 2.0 0.00 0.00 0.00 59 1018.4
20260903212703 69 45 1.0 2.0 0.00 0.00 0.00 59 1018.3
20260903211803 69 330 0.0 1.0 0.00 0.00 0.00 59 1018.2
20260903210903 69 35 2.0 4.0 0.00 0.00 0.00 59 1018.1
20260903210218 69 65 2.0 2.0 0.00 0.00 0.00 59 1018.0
20260903205403 68 90 1.0 2.0 0.00 0.00 0.00 60 1018.0
20260903204503 69 0 0.0 0.0 0.00 0.00 0.00 59 1018.2
20260903203603 69 20 2.0 4.0 0.00 0.00 0.00 58 1018.1
20260903202918 69 23 3.0 4.0 0.00 0.00 0.00 58 1018.2
20260903201803 70 34 2.0 3.0 0.00 0.00 0.00 57 1018.0
20260903200903 70 34 2.0 3.0 0.00 0.00 0.00 57 1017.9
20260903200004 70 31 3.0 4.0 0.00 0.00 0.00 57 1018.0
20260903195403 69 43 2.0 3.0 0.00 0.00 0.00 57 1017.9
20260903194717 69 32 2.0 3.0 0.00 0.00 0.00 57 1017.9
20260903193603 70 45 1.0 2.0 0.00 0.00 0.00 56 1017.9
20260903192703 70 44 2.0 3.0 0.00 0.00 0.00 56 1017.9
20260903191803 70 26 3.0 4.0 0.00 0.00 0.00 56 1018.0
20260903190903 70 37 2.0 2.0 0.00 0.00 0.00 56 1018.1
20260903190005 70 36 2.0 3.0 0.00 0.00 0.00 56 1017.8
20260903185403 70 23 2.0 3.0 0.00 0.00 0.00 56 1017.9
20260903184503 70 22 2.0 2.0 0.00 0.00 0.00 56 1017.8
20260903183603 70 23 2.0 3.0 0.00 0.00 0.00 56 1017.7
20260903182703 71 23 3.0 3.0 0.00 0.00 0.00 55 1017.5
20260903181803 71 13 2.0 3.0 0.00 0.00 0.00 55 1017.5
20260903181118 71 17 1.0 3.0 0.00 0.00 0.00 55 1017.4
20260903180003 71 32 1.0 2.0 0.00 0.00 0.00 55 1017.5
20260903175403 71 5 0.0 2.0 0.00 0.00 0.00 55 1017.5
20260903174503 71 0 0.0 0.0 0.00 0.00 0.00 54 1017.5
20260903173603 72 0 0.0 0.0 0.00 0.00 0.00 54 1017.3
20260903172703 73 0 0.0 0.0 0.00 0.00 0.00 53 1017.4
20260903171803 74 0 0.0 0.0 0.00 0.00 0.00 53 1017.4
20260903170903 76 0 0.0 0.0 0.00 0.00 0.00 50 1017.4
20260903170004 78 0 0.0 0.0 0.00 0.00 0.00 48 1017.3
20260903165403 79 264 0.0 2.0 0.00 0.00 0.00 48 1017.2
20260903164717 80 265 0.0 2.0 0.00 0.00 0.00 48 1017.3
20260903163603 80 272 0.0 3.0 0.00 0.00 0.00 47 1017.3
20260903162703 80 281 1.0 3.0 0.00 0.00 0.00 46 1017.3
20260903161803 81 285 1.0 5.0 0.00 0.00 0.00 47 1017.3
20260903160903 82 286 0.0 3.0 0.00 0.00 0.00 47 1017.1
20260903160003 81 291 0.0 2.0 0.00 0.00 0.00 48 1017.0
20260903155403 79 258 0.0 2.0 0.00 0.00 0.00 52 1017.1
20260903154717 78 261 0.0 2.0 0.00 0.00 0.00 52 1017.0
20260903153603 78 0 0.0 0.0 0.00 0.00 0.00 50 1016.9
20260903152703 79 315 0.0 2.0 0.00 0.00 0.00 48 1016.9
20260903151803 80 295 0.0 2.0 0.00 0.00 0.00 46 1016.7
20260903150903 80 263 0.0 2.0 0.00 0.00 0.00 47 1016.8
20260903150004 80 248 1.0 4.0 0.00 0.00 0.00 46 1016.8
20260903145403 80 258 1.0 4.0 0.00 0.00 0.00 46 1017.0
20260903144503 80 234 2.0 4.0 0.00 0.00 0.00 46 1016.9
20260903143603 79 217 2.0 4.0 0.00 0.00 0.00 44 1017.0
20260903142703 81 264 2.0 5.0 0.00 0.00 0.00 43 1017.1
20260903141803 81 255 4.0 8.0 0.00 0.00 0.00 43 1017.0
20260903140903 82 258 3.0 8.0 0.00 0.00 0.00 42 1017.1
20260903140004 80 246 3.0 6.0 0.00 0.00 0.00 44 1017.2
20260903135403 80 244 3.0 6.0 0.00 0.00 0.00 43 1017.0
20260903134503 80 229 3.0 6.0 0.00 0.00 0.00 44 1017.2
20260903133818 80 238 4.0 6.0 0.00 0.00 0.00 42 1017.2
20260903132703 80 232 4.0 11.0 0.00 0.00 0.00 44 1017.2
20260903131803 81 245 4.0 6.0 0.00 0.00 0.00 42 1017.3
20260903130903 81 247 4.0 9.0 0.00 0.00 0.00 44 1017.2
20260903130004 81 245 5.0 10.0 0.00 0.00 0.00 43 1017.2
20260903125403 81 235 5.0 10.0 0.00 0.00 0.00 43 1017.1
20260903124503 80 216 5.0 10.0 0.00 0.00 0.00 42 1017.3
20260903123603 81 236 4.0 8.0 0.00 0.00 0.00 42 1017.3
20260903122703 81 248 3.0 8.0 0.00 0.00 0.00 43 1017.3
20260903121803 80 244 4.0 9.0 0.00 0.00 0.00 42 1017.8
20260903120904 81 293 3.0 8.0 0.00 0.00 0.00 42 1017.8
20260903120004 81 71 4.0 11.0 0.00 0.00 0.00 44 1017.8
20260903115618 81 113 4.0 9.0 0.00 0.00 0.00 42 1017.8
20260903114718 81 260 2.0 6.0 0.00 0.00 0.00 42 1017.8
20260903113603 81 89 4.0 9.0 0.00 0.00 0.00 42 1017.9
20260903112918 81 86 2.0 7.0 0.00 0.00 0.00 43 1017.8
20260903111803 80 232 2.0 7.0 0.00 0.00 0.00 44 1017.9
20260903110908 79 234 2.0 9.0 0.00 0.00 0.00 43 1018.1
20260903110216 79 96 2.0 8.0 0.00 0.00 0.00 42 1018.2
20260903105403 78 94 5.0 9.0 0.00 0.00 0.00 44 1018.2
20260903104503 79 82 4.0 11.0 0.00 0.00 0.00 45 1018.2
20260903103603 78 72 4.0 13.0 0.00 0.00 0.00 48 1018.2
20260903102703 78 85 5.0 9.0 0.00 0.00 0.00 48 1018.3
20260903102017 77 69 7.0 13.0 0.00 0.00 0.00 47 1018.4
20260903100903 77 66 7.0 13.0 0.00 0.00 0.00 50 1018.5
20260903100004 76 69 7.0 14.0 0.00 0.00 0.00 51 1018.6
20260903095403 75 81 8.0 14.0 0.00 0.00 0.00 51 1018.6
20260903094503 75 83 9.0 15.0 0.00 0.00 0.00 51 1018.6
20260903093603 75 74 9.0 17.0 0.00 0.00 0.00 51 1018.6
20260903092703 75 79 9.0 18.0 0.00 0.00 0.00 52 1018.7
20260903091803 75 76 10.0 18.0 0.00 0.00 0.00 53 1018.7
20260903090903 75 83 8.0 18.0 0.00 0.00 0.00 53 1018.6
20260903090004 74 70 11.0 18.0 0.00 0.00 0.00 53 1018.6
20260903085403 74 64 10.0 16.0 0.00 0.00 0.00 54 1018.7
20260903084503 74 71 8.0 19.0 0.00 0.00 0.00 54 1018.6
20260903083603 74 77 9.0 19.0 0.00 0.00 0.00 55 1018.6
20260903082704 73 87 10.0 17.0 0.00 0.00 0.00 56 1018.6
20260903081803 73 78 10.0 17.0 0.00 0.00 0.00 57 1018.6
20260903080903 73 69 9.0 18.0 0.00 0.00 0.00 56 1018.6
20260903080004 72 78 9.0 17.0 0.00 0.00 0.00 58 1018.5
20260903075617 72 79 10.0 19.0 0.00 0.00 0.00 58 1018.5
20260903074503 72 79 10.0 17.0 0.00 0.00 0.00 59 1018.5
20260903073603 71 77 10.0 18.0 0.00 0.00 0.00 59 1018.4
20260903072703 71 81 10.0 16.0 0.00 0.00 0.00 60 1018.4
20260903072018 71 80 10.0 18.0 0.00 0.00 0.00 60 1018.3
20260903070903 70 77 12.0 19.0 0.00 0.00 0.00 60 1018.4
20260903070004 70 68 11.0 19.0 0.00 0.00 0.00 61 1018.4
20260903065403 70 75 11.0 18.0 0.00 0.00 0.00 62 1018.3
20260903064503 70 77 9.0 17.0 0.00 0.00 0.00 62 1018.3
20260903063603 70 75 7.0 14.0 0.00 0.00 0.00 62 1018.3
20260903062703 69 75 9.0 16.0 0.00 0.00 0.00 62 1018.3
20260903061803 69 78 9.0 18.0 0.00 0.00 0.00 63 1018.2
20260903060903 69 72 10.0 18.0 0.00 0.00 0.00 63 1018.1
20260903060004 68 76 12.0 19.0 0.00 0.00 0.00 63 1017.9
20260903055403 68 78 11.0 17.0 0.00 0.00 0.00 64 1017.7
20260903054503 68 80 13.0 20.0 0.00 0.00 0.00 64 1017.4
20260903053603 67 76 12.0 20.0 0.00 0.00 0.00 65 1017.8
20260903052918 67 76 11.0 20.0 0.00 0.00 0.00 65 1017.7
20260903051803 67 74 13.0 20.0 0.00 0.00 0.00 64 1017.5
20260903050903 67 82 12.0 21.0 0.00 0.00 0.00 64 1017.4
20260903050218 67 81 13.0 21.0 0.00 0.00 0.00 64 1017.4
20260903045403 67 79 11.0 18.0 0.00 0.00 0.00 64 1017.2
20260903044503 67 76 12.0 19.0 0.00 0.00 0.00 64 1017.4
20260903043604 67 76 11.0 19.0 0.00 0.00 0.00 64 1017.1
20260903042918 67 79 9.0 18.0 0.00 0.00 0.00 64 1017.1
20260903042017 67 77 8.0 18.0 0.00 0.00 0.00 63 1017.2
20260903040903 67 71 10.0 17.0 0.00 0.00 0.00 63 1017.0
20260903040218 67 74 11.0 17.0 0.00 0.00 0.00 63 1017.0
20260903035403 67 76 12.0 20.0 0.00 0.00 0.00 63 1017.0
20260903034503 67 71 11.0 20.0 0.00 0.00 0.00 63 1016.9
20260903033603 67 77 9.0 18.0 0.00 0.00 0.00 62 1017.1
20260903032703 68 74 11.0 18.0 0.00 0.00 0.00 61 1017.0
20260903031803 68 73 12.0 18.0 0.00 0.00 0.00 61 1016.9
20260903031118 68 73 10.0 17.0 0.00 0.00 0.00 61 1017.0
20260903030003 68 79 11.0 20.0 0.00 0.00 0.00 62 1017.0
20260903025403 68 79 11.0 18.0 0.00 0.00 0.00 62 1017.3
20260903024503 68 81 11.0 17.0 0.00 0.00 0.00 62 1017.3
20260903023603 68 80 10.0 17.0 0.00 0.00 0.00 62 1017.3
20260903022703 68 78 10.0 17.0 0.00 0.00 0.00 62 1017.3
20260903021803 68 84 10.0 17.0 0.00 0.00 0.00 62 1017.4
20260903020903 68 81 8.0 17.0 0.00 0.00 0.00 62 1017.3
20260903020003 69 78 8.0 15.0 0.00 0.00 0.00 62 1017.4
20260903015403 69 78 9.0 15.0 0.00 0.00 0.00 62 1017.4
20260903014503 68 81 8.0 14.0 0.00 0.00 0.00 62 1017.4
20260903013603 68 79 9.0 17.0 0.00 0.00 0.00 62 1017.3
20260903012703 68 78 8.0 17.0 0.00 0.00 0.00 63 1017.4
20260903011803 68 79 8.0 15.0 0.00 0.00 0.00 63 1017.4
20260903010903 68 79 8.0 15.0 0.00 0.00 0.00 63 1017.3
20260903010004 68 69 8.0 17.0 0.00 0.00 0.00 64 1017.2
20260903005616 68 74 8.0 14.0 0.00 0.00 0.00 64 1017.2
20260903004503 68 86 8.0 17.0 0.00 0.00 0.00 64 1017.3
20260903003817 68 76 9.0 17.0 0.00 0.00 0.00 64 1017.3
20260903002703 67 70 8.0 16.0 0.00 0.00 0.00 64 1017.3
20260903001803 67 72 7.0 15.0 0.00 0.00 0.00 64 1017.3
20260903000903 68 80 8.0 13.0 0.00 0.00 0.00 63 1017.3
20260903000004 68 69 9.0 16.0 0.00 0.00 0.00 63 1017.3
20260902235403 68 75 8.0 16.0 0.00 0.00 0.00 64 1017.3
20260902234503 68 78 8.0 15.0 0.00 0.00 0.00 64 1017.1
20260902233818 68 77 8.0 15.0 0.00 0.00 0.00 64 1017.1
20260902232918 68 78 7.0 15.0 0.00 0.00 0.00 64 1017.1
20260902231803 69 74 5.0 11.0 0.00 0.00 0.00 63 1017.3
20260902230903 69 73 8.0 15.0 0.00 0.00 0.00 63 1017.2
20260902230004 69 74 11.0 19.0 0.00 0.00 0.00 63 1017.0
20260902225403 69 77 11.0 19.0 0.00 0.00 0.00 64 1017.0
20260902224503 67 69 7.0 13.0 0.00 0.00 0.00 67 1017.1
20260902223603 65 77 0.0 4.0 0.00 0.00 0.00 69 1017.7
20260902222703 66 286 0.0 4.0 0.00 0.00 0.00 68 1017.7
20260902221803 66 0 0.0 0.0 0.00 0.00 0.00 68 1017.8
20260902220903 67 280 1.0 4.0 0.00 0.00 0.00 66 1017.8